GW2463 Weather Reports


time (UTC)temp
C
wind
direction
speed
KPH
gust
KPH
rain 1hr
cm
rain 24hr
cm
rain mn
cm
humidity
%
barometer
mb
20260504201543 20 226 4.8 11.3 0.00 0.00 0.00 33 1009.6
20260504201019 19 259 4.8 9.7 0.00 0.00 0.00 33 1009.6
20260504200514 19 278 4.8 11.3 0.00 0.00 0.00 32 1009.6
20260504200026 19 253 6.4 11.3 0.00 0.00 0.00 32 1009.8
20260504195522 19 240 6.4 11.3 0.00 0.00 0.00 33 1009.8
20260504195039 19 224 3.2 11.3 0.00 0.00 0.00 34 1009.7
20260504194534 19 245 4.8 9.7 0.00 0.00 0.00 33 1009.9
20260504194027 19 319 1.6 11.3 0.00 0.00 0.00 33 1009.8
20260504193524 19 233 4.8 14.5 0.00 0.00 0.00 33 1009.9
20260504193021 19 238 4.8 14.5 0.00 0.00 0.00 33 1009.9
20260504192518 19 239 4.8 11.3 0.00 0.00 0.00 33 1010.0
20260504192035 19 205 4.8 9.7 0.00 0.00 0.00 34 1010.0
20260504191552 19 290 3.2 11.3 0.00 0.00 0.00 34 1009.9
20260504191028 19 257 4.8 14.5 0.00 0.00 0.00 33 1010.0
20260504190525 19 283 6.4 14.5 0.00 0.00 0.00 33 1009.9
20260504190020 19 255 3.2 12.9 0.00 0.00 0.00 32 1009.9
20260504185518 19 301 3.2 16.1 0.00 0.00 0.00 33 1010.1
20260504185016 18 314 6.4 16.1 0.00 0.00 0.00 33 1010.2
20260504184516 18 30 4.8 14.5 0.00 0.00 0.00 32 1010.2
20260504184036 19 219 3.2 11.3 0.00 0.00 0.00 32 1010.2
20260504183533 19 314 4.8 9.7 0.00 0.00 0.00 32 1010.2
20260504183028 18 217 3.2 9.7 0.00 0.00 0.00 34 1010.1
20260504182525 18 300 4.8 14.5 0.00 0.00 0.00 34 1010.3
20260504182022 18 259 4.8 14.5 0.00 0.00 0.00 33 1010.2
20260504181521 19 212 3.2 9.7 0.00 0.00 0.00 32 1010.3
20260504181020 19 228 3.2 12.9 0.00 0.00 0.00 34 1010.3
20260504180519 19 293 3.2 12.9 0.00 0.00 0.00 32 1010.4
20260504180014 18 64 1.6 8.0 0.00 0.00 0.00 34 1010.3
20260504175533 18 224 3.2 9.7 0.00 0.00 0.00 32 1010.5
20260504175052 18 283 1.6 11.3 0.00 0.00 0.00 35 1010.6
20260504174530 18 91 1.6 11.3 0.00 0.00 0.00 34 1010.6
20260504174032 18 277 1.6 9.7 0.00 0.00 0.00 34 1010.7
20260504173529 18 226 1.6 11.3 0.00 0.00 0.00 34 1010.8
20260504173028 18 203 3.2 11.3 0.00 0.00 0.00 36 1010.8
20260504172545 18 94 1.6 11.3 0.00 0.00 0.00 34 1010.7
20260504172022 18 23 4.8 12.9 0.00 0.00 0.00 34 1010.9
20260504171521 18 243 3.2 12.9 0.00 0.00 0.00 34 1010.9
20260504171019 17 226 3.2 9.7 0.00 0.00 0.00 34 1011.0
20260504170516 17 286 3.2 12.9 0.00 0.00 0.00 34 1010.9
20260504151041 15 225 6.4 14.5 0.00 0.00 0.00 38 1012.3
20260504150517 15 329 3.2 12.9 0.00 0.00 0.00 38 1012.3
20260504141027 12 257 3.2 14.5 0.00 0.00 0.00 42 1012.6
20260504140525 12 321 3.2 11.3 0.00 0.00 0.00 42 1012.4
20260504130513 11 294 1.6 11.3 0.00 0.00 0.00 44 1012.9
20260504110519 8 263 1.6 8.0 0.00 0.00 0.00 50 1012.9
20260504100536 7 257 1.6 8.0 0.00 0.00 0.00 52 1012.6
20260504081515 7 243 3.2 11.3 0.00 0.00 0.00 53 1012.9
20260504081014 7 252 1.6 8.0 0.00 0.00 0.00 53 1012.9
20260504080535 7 259 3.2 8.0 0.00 0.00 0.00 53 1012.9
20260504050544 7 246 0.0 3.2 0.00 0.00 0.00 53 1012.7
20260504050016 7 252 0.0 3.2 0.00 0.00 0.00 54 1012.6
20260504045530 7 263 0.0 3.2 0.00 0.00 0.00 53 1012.6
20260504045026 7 238 0.0 3.2 0.00 0.00 0.00 54 1012.6
20260504044523 7 245 0.0 3.2 0.00 0.00 0.00 53 1012.6
20260504044020 7 245 0.0 4.8 0.00 0.00 0.00 53 1012.5
20260504043539 7 297 0.0 4.8 0.00 0.00 0.00 53 1012.5
20260504043017 7 248 1.6 4.8 0.00 0.00 0.00 53 1012.5
20260504042515 7 239 1.6 4.8 0.00 0.00 0.00 53 1012.5
20260504042014 7 250 0.0 3.2 0.00 0.00 0.00 53 1012.5
20260504041533 7 240 0.0 3.2 0.00 0.00 0.00 53 1012.4
20260504041029 7 250 0.0 4.8 0.00 0.00 0.00 53 1012.4
20260504040528 7 255 0.0 3.2 0.00 0.00 0.00 53 1012.3
20260504040023 7 242 0.0 3.2 0.00 0.00 0.00 53 1012.3
20260504035515 7 263 1.6 3.2 0.00 0.00 0.00 53 1012.3
20260504035013 7 266 0.0 1.6 0.00 0.00 0.00 52 1012.3
20260504034530 7 267 0.0 4.8 0.00 0.00 0.00 52 1012.3
20260504034027 7 266 0.0 4.8 0.00 0.00 0.00 52 1012.2
20260504033524 7 233 0.0 1.6 0.00 0.00 0.00 52 1012.2
20260504033021 7 235 0.0 3.2 0.00 0.00 0.00 52 1012.2
20260504032518 7 290 0.0 3.2 0.00 0.00 0.00 52 1012.3
20260504032015 7 262 0.0 3.2 0.00 0.00 0.00 52 1012.3
20260504031532 7 245 0.0 3.2 0.00 0.00 0.00 52 1012.3
20260504031046 7 255 0.0 3.2 0.00 0.00 0.00 52 1012.3
20260504030524 7 262 0.0 1.6 0.00 0.00 0.00 53 1012.3
20260504030020 7 215 0.0 1.6 0.00 0.00 0.00 53 1012.3
20260504025521 7 266 0.0 0.0 0.00 0.00 0.00 52 1012.4
20260504025020 7 266 0.0 0.0 0.00 0.00 0.00 52 1012.3
20260504024520 7 266 0.0 1.6 0.00 0.00 0.00 52 1012.3
20260504024018 7 267 0.0 1.6 0.00 0.00 0.00 51 1012.4
20260504023518 7 276 0.0 1.6 0.00 0.00 0.00 51 1012.3
20260504023017 7 276 0.0 0.0 0.00 0.00 0.00 52 1012.4
20260504022533 7 276 0.0 0.0 0.00 0.00 0.00 52 1012.5
20260504022031 7 276 0.0 1.6 0.00 0.00 0.00 51 1012.4
20260504021550 7 276 0.0 3.2 0.00 0.00 0.00 50 1012.4
20260504021029 7 277 0.0 3.2 0.00 0.00 0.00 50 1012.5
20260504020528 7 259 0.0 3.2 0.00 0.00 0.00 51 1012.4
20260504020043 7 236 0.0 0.0 0.00 0.00 0.00 50 1012.4
20260504015520 7 235 0.0 0.0 0.00 0.00 0.00 49 1012.4
20260504015020 7 236 0.0 0.0 0.00 0.00 0.00 50 1012.4
20260504014519 7 267 0.0 0.0 0.00 0.00 0.00 50 1012.3
20260504014017 7 271 0.0 0.0 0.00 0.00 0.00 51 1012.3
20260504013536 7 271 0.0 0.0 0.00 0.00 0.00 52 1012.2
20260504013015 7 271 0.0 1.6 0.00 0.00 0.00 50 1012.1
20260504012514 7 271 0.0 1.6 0.00 0.00 0.00 51 1012.1
20260504012013 7 248 0.0 0.0 0.00 0.00 0.00 50 1012.1
20260504011532 8 248 0.0 0.0 0.00 0.00 0.00 51 1012.0
20260504011052 8 248 0.0 0.0 0.00 0.00 0.00 51 1012.0
20260504010530 8 248 0.0 0.0 0.00 0.00 0.00 51 1012.0
20260504010023 8 248 0.0 0.0 0.00 0.00 0.00 50 1012.0
20260504005522 8 248 0.0 0.0 0.00 0.00 0.00 48 1011.9
20260504005021 8 248 0.0 0.0 0.00 0.00 0.00 47 1011.9
20260504004520 8 248 0.0 0.0 0.00 0.00 0.00 47 1011.9
20260504004019 8 248 0.0 0.0 0.00 0.00 0.00 47 1011.8
20260504003518 8 248 0.0 0.0 0.00 0.00 0.00 46 1011.8
20260504003018 8 256 0.0 0.0 0.00 0.00 0.00 46 1011.7
20260504002517 9 256 0.0 0.0 0.00 0.00 0.00 45 1011.6
20260504002018 9 256 0.0 0.0 0.00 0.00 0.00 45 1011.6
20260504001519 9 256 0.0 0.0 0.00 0.00 0.00 45 1011.5
20260504001020 9 262 0.0 0.0 0.00 0.00 0.00 45 1011.5
20260504000517 10 262 0.0 0.0 0.00 0.00 0.00 45 1011.5
20260504000014 10 260 0.0 1.6 0.00 0.00 0.00 44 1011.4
20260503235514 10 262 0.0 1.6 0.00 0.00 0.00 44 1011.4
20260503235014 10 260 0.0 1.6 0.00 0.00 0.00 43 1011.3
20260503234533 10 255 0.0 3.2 0.00 0.00 0.00 42 1011.2
20260503234032 10 278 0.0 3.2 0.00 0.00 0.00 42 1011.3
20260503233530 10 273 0.0 4.8 0.00 0.00 0.00 41 1011.2
20260503233029 11 271 0.0 9.7 0.00 0.00 0.00 41 1011.2
20260503232548 11 217 3.2 8.0 0.00 0.00 0.00 40 1011.2
20260503232026 11 266 0.0 8.0 0.00 0.00 0.00 40 1011.2
20260503231524 11 273 1.6 8.0 0.00 0.00 0.00 40 1011.2
20260503231021 11 300 0.0 6.4 0.00 0.00 0.00 40 1011.2
20260503230516 11 307 1.6 9.7 0.00 0.00 0.00 40 1011.1
20260503230029 11 29 3.2 9.7 0.00 0.00 0.00 39 1011.1
20260503225526 11 222 1.6 9.7 0.00 0.00 0.00 39 1011.1
20260503225023 11 283 1.6 9.7 0.00 0.00 0.00 39 1011.2
20260503224540 11 238 4.8 9.7 0.00 0.00 0.00 38 1011.0
20260503224016 11 343 1.6 12.9 0.00 0.00 0.00 38 1011.1
20260503223513 11 269 4.8 9.7 0.00 0.00 0.00 38 1011.0
20260503223054 11 250 1.6 14.5 0.00 0.00 0.00 38 1011.0
20260503222550 11 248 4.8 14.5 0.00 0.00 0.00 38 1011.0
20260503222026 11 284 4.8 11.3 0.00 0.00 0.00 37 1011.0
20260503221524 11 302 3.2 9.7 0.00 0.00 0.00 37 1011.0
20260503221022 11 294 1.6 9.7 0.00 0.00 0.00 38 1011.0
20260503220521 11 295 3.2 9.7 0.00 0.00 0.00 37 1011.0
20260503220017 11 278 4.8 11.3 0.00 0.00 0.00 37 1011.1
20260503215536 11 273 3.2 12.9 0.00 0.00 0.00 37 1011.0
20260503215014 11 191 4.8 14.5 0.00 0.00 0.00 36 1011.0
20260503214512 11 51 3.2 14.5 0.00 0.00 0.00 36 1011.0
20260503214012 11 328 6.4 12.9 0.00 0.00 0.00 36 1010.9
20260503213513 11 271 3.2 9.7 0.00 0.00 0.00 35 1010.8
20260503213031 11 37 3.2 9.7 0.00 0.00 0.00 36 1010.8
20260503212530 11 330 3.2 9.7 0.00 0.00 0.00 34 1010.8
20260503212030 11 307 3.2 9.7 0.00 0.00 0.00 34 1010.8
20260503211529 11 41 3.2 14.5 0.00 0.00 0.00 34 1010.6
20260503211028 11 353 4.8 14.5 0.00 0.00 0.00 33 1010.5
20260503210527 11 222 8.0 16.1 0.00 0.00 0.00 33 1010.5
20260503210024 11 295 4.8 16.1 0.00 0.00 0.00 33 1010.5
20260503205523 11 280 6.4 14.5 0.00 0.00 0.00 33 1010.6
20260503205116 11 64 8.0 14.5 0.00 0.00 0.00 33 1010.5
20260503204541 11 249 3.2 9.7 0.00 0.00 0.00 33 1010.6
20260503204019 11 198 1.6 8.0 0.00 0.00 0.00 33 1010.5
20260503203518 11 259 3.2 9.7 0.00 0.00 0.00 33 1010.7
20260503203038 11 307 4.8 11.3 0.00 0.00 0.00 32 1010.6
20260503202552 11 295 3.2 19.3 0.00 0.00 0.00 34 1010.7
20260503202046 11 271 6.4 19.3 0.00 0.00 0.00 33 1010.7